STARLINK-4720, 53800

Orbit data source: Space-Track

STARLINK-4720, 53800 is a payload satellite owned by SpaceX/Seattle (US) in LEO that was launched on Sun, 11 Sep 2022 UTC via an FALCON 9 launch vehicle from the Air Force Eastern Test Range (AFETR). Payload-class satellites include a variety of spacecraft equipped with specific instruments for various scientific and technological missions. These include communications satellites like Starlink; space stations such as the ISS; scientific satellites like the Hubble; Earth observation satellites from companies like Planet Labs, Umbra, and HawkEye 360; GPS; miniature CubeSats for education and research; and military/defense satellites.

Loading next visibility...
Identifier
53800, 2022-111AD
Orbit
LEO
Country
Flag of USUS
Related business
Manufacturer
SpaceX/Seattle
Mission
Partially operational Commercial Communications
Bus & Motor
STARLINK, Unknown motor
Mass
305 kg wet, ~290 kg dry
Launch date (UTC)
2022-09-11 (4 years ago)
Launch vehicle
FALCON 9
Launch site
Air Force Eastern Test Range (AFETR)
Object type
Payload
Rocket body
Debris
Shape & HBR
Box + 1 Pan, 10.1 m
Radar Cross Section
13.562 m², Large (>1 m²)

Expand to show TLE details & history
Last TLE update: 18 hours ago

TLE from 18 hours ago
0 STARLINK-4720
1 53800U 22111AD  26236.18652780  .00047992  00000-0  45291-3 0  9994
2 53800  53.2052 147.7432 0004144  59.7943 300.3484 15.66573969220297
Epoch: 2026-08-24T04:28Z
TLE epoch observation values (Epoch: 2026-08-24T04:28:36.001Z)
Latitude
-0.00005°
Longitude
108.12131°
Altitude
368.223 km
Speed
7.691 km/s
True Right ascension
09h 50m 58s
True Declination
0° 00' 00"
Sunlit
Object was in daylight at epoch
Visualization orbit readout
Latitude
Unknown
Longitude
Unknown
Altitude
Unknown
Speed
Unknown
Apparent Right ascension
Unknown
Apparent Declination
Unknown
Sunlit
N/A
Visualization observer readout
Local Sidereal Time
13:47:34
Azimuth
Unknown
Elevation
Unknown
Doppler factor
Unknown
Orbital elements
Apogee altitude
371.765 km
Perigee altitude
366.173 km
Semi-major axis
6,747.106 km
Eccentricity
0.00041
Inclination
53.2052°
RAAN
147.7432°
Arg. of periapsis
59.7943°
True anomaly
300.30741°
Mean anomaly
300.3484°
Eccentric anomaly
300.32791°
Mean motion
3.91622 °/min
Orbital period
91.93 mins
BSTAR
0.00045291
Loading maneuver chart data...
Computing Atmospheric mass density...
Loading historical data...
Loading historical data...
Loading historical data...
Loading historical data...
Loading historical data...
Loading historical data...
Loading historical data...

Documentation

Showing up to 5 results
|